DELTA 1 DEB, 14510

Orbit data source: Space-Track

DELTA 1 DEB, 14510 is space debris in LEO originally from a launch on Thu, 29 Jul 1976 UTC launched from the Air Force Western Test Range (AFWTR). Debris objects in space refer to the collection of defunct objects orbiting the Earth. Examples of debris include non-operational satellites, rocket bodies, and fragments generated from explosions, collisions, or faulty payload assembly.

Loading next visibility...
Identifier
14510, 1976-077ER
Orbit
LEO
Country
Flag of USUS
Related business
Manufacturer
Unknown
Mission
Spacecraft
Bus & Motor
Unknown
Mass
Unknown
Launch date (UTC)
1976-07-29 (50 years ago)
Launch vehicle
Unknown
Launch site
Air Force Western Test Range (AFWTR)
Object type
Payload
Rocket body
Debris
Shape & HBR
Unknown shape, 0.1 m
Radar Cross Section
Medium (>0.1 m² and <1 m²)

Expand to show TLE details & history
Last TLE update: 5 hours ago

TLE from 5 hours ago
0 DELTA 1 DEB
1 14510U 76077ER  26171.31434902  .00000161  00000-0  23547-2 0  9992
2 14510 102.4366  98.4993 0221597 207.3944 306.6394 11.99453784928126
Epoch: 2026-06-20T07:32Z
TLE epoch observation values (Epoch: 2026-06-20T07:32:39.755Z)
Latitude
27.36268°
Longitude
-96.67552°
Altitude
1,582.259 km
Speed
7.125 km/s
True Right ascension
19h 00m 05s
True Declination
27° 14' 13"
Sunlit
Object was in full shadow at epoch
Visualization orbit readout
Latitude
Unknown
Longitude
Unknown
Altitude
Unknown
Speed
Unknown
Apparent Right ascension
Unknown
Apparent Declination
Unknown
Sunlit
N/A
Visualization observer readout
Local Sidereal Time
23:41:20
Azimuth
Unknown
Elevation
Unknown
Doppler factor
Unknown
Orbital elements
Apogee altitude
1,859.546 km
Perigee altitude
1,502.372 km
Semi-major axis
8,059.096 km
Eccentricity
0.02216
Inclination
102.4366°
RAAN
98.4993°
Arg. of periapsis
207.3944°
True anomaly
304.56806°
Mean anomaly
306.6394°
Eccentric anomaly
305.60713°
Mean motion
2.99995 °/min
Orbital period
120 mins
BSTAR
0.0023547
Loading maneuver chart data...
Computing Atmospheric mass density...
Loading historical data...
Loading historical data...
Loading historical data...
Loading historical data...
Loading historical data...
Loading historical data...
Loading historical data...

Documentation

Showing up to 5 results
|